Regional Weather Roundup
Issued by NWS

Home | Current Version | Previous Version | Graphics & Text | Print | Product List | Glossary On
Versions: 1 2 3 4 5 6 7 8 9 10 11 12 13 14 15 16 17 18 19 20 21 22 23 24 25 26 27 28 29 30 31 32 33 34 35 36 37 38 39 40 41 42 43 44 45 46 47 48 49 50
000
ASUS43 KDTX 300110
RWRMI
MICHIGAN HOURLY REGIONAL WEATHER ROUNDUP
NATIONAL WEATHER SERVICE DETROIT/PONTIAC MI
900 PM EDT TUE JUL 29 2014

NOTE: "FAIR" INDICATES FEW OR NO CLOUDS BELOW 12,000 FEET WITH NO
SIGNIFICANT WEATHER AND/OR OBSTRUCTION TO VISIBILITY.

MIZ047>049-052>055-059>063-066>070-074>076-081>083-300200-
SOUTHEAST LOWER MICHIGAN

CITY           SKY/WX    TMP DP  RH WIND       PRES   REMARKS
ADRIAN         LGT RAIN  64  59  83 N9        30.01R
ALMA           PTCLDY    63  58  85 CALM      29.96S
ANN ARBOR      TSTM      60  56  86 SW6       29.98S
BAD AXE        PTCLDY    63  59  87 SW7       29.93S
DETROIT CITY   MOCLDY    66  60  81 SW3       29.96R
DETROIT        MOCLDY    65  58  78 W8        29.96F
FLINT          LGT RAIN  65  58  78 CALM      29.95S
GROSSE ILE     PTCLDY    66  57  72 W3        29.95R
HILLSDALE      CLEAR     64  61  88 CALM      30.00R
HOWELL         CLOUDY    63  55  76 CALM      29.97S

CITY           SKY/WX    TMP DP  RH WIND       PRES   REMARKS
JACKSON        PTCLDY    65  56  72 W6        29.98S
LAMBERTVILLE   MOCLDY    70  54  56 W5        29.98S
LANSING        PTCLDY    66  55  67 W6        29.97R
LAPEER         NOT AVBL
MASON          PTCLDY    66  55  66 W7        29.97R
MONROE         LGT RAIN  64  61  88 NW3       29.95S
MT. CLEMENS    CLOUDY    65  54  68 W3        29.94R
PONTIAC        CLOUDY    63  57  81 SW6       29.96R
PORT HOPE        N/A     64  61  90 E5        29.91R
PORT HURON     MOCLDY    63  57  82 SW3       29.94S
TRI CITIES     CLOUDY    63  56  78 SW3       29.94F THUNDER
YPSILANTI      MOCLDY    67  57  70 W13       29.97S
$$
MIZ043>046-050>051-056>058-064>065-071>073-077>080-300200-
SOUTHWEST LOWER MICHIGAN

CITY           SKY/WX    TMP DP  RH WIND       PRES   REMARKS
BATTLE CREEK   CLEAR     65  55  70 W6        29.99S
BENTON HARBOR  PTCLDY    63  56  78 CALM      29.98F
BIG RAPIDS     PTCLDY    65  54  68 N6        29.96S
COLDWATER      CLEAR     65  57  74 W3        29.99S
HOLLAND        MOCLDY    63  57  81 W6        29.98F
GRAND RAPIDS   MOCLDY    69  55  60 W7        29.97S
KALAMAZOO      CLEAR     66  55  67 W5        30.00R
MARSHALL       CLEAR     62  55  79 NW3       29.98S
MUSKEGON       CLOUDY    61  54  77 CALM      29.98S
$$
MIZ016>042-300200-
NORTHERN LOWER MICHIGAN

CITY           SKY/WX    TMP DP  RH WIND       PRES   REMARKS
ALPENA         LGT RAIN  58  53  84 W6        29.93R
BEAVER ISLAND  CLEAR     62  57  83 W3        29.96S
BELLAIRE       PTCLDY    61  56  82 CALM      29.95S
CADILLAC       PTCLDY    61  55  83 W5        29.96F
CHARLEVOIX     CLEAR     61  59  91 W8        29.98S
FRANKFORT      CLOUDY    62  55  79 CALM      29.97R
GAYLORD        CLEAR     61  54  77 NW5       29.96R
GRAYLING       CLEAR     60  54  78 W5        29.96S
HARBOR SPRINGS CLEAR     62  58  88 W3        29.94S
HOUGHTON LAKE  PTCLDY    62  52  69 NW6       29.96R
MANISTEE       CLEAR     61  54  77 W6        29.97F
OSCODA         CLEAR     61  59  94 CALM      29.92S
PELLSTON       PTCLDY    62  56  80 W7        29.94S
TRAVERSE CITY  MOCLDY    66  55  67 N6        29.95R
$$
MIZ007>008-015-300200-
EASTERN UPPER MICHIGAN

CITY           SKY/WX    TMP DP  RH WIND       PRES   REMARKS
KINROSS        PTCLDY    54  54 100 NW7       29.95R
MACKINAC ISLAN CLEAR     60  53  76 N9        29.93S
NEWBERRY       CLEAR     56  51  85 NW12      29.96R
S. S. MARIE    PTCLDY    52  49  89 NW5       29.94R
$$
MIZ004>006-011>014-085-300200-
CENTRAL UPPER MICHIGAN

CITY           SKY/WX    TMP DP  RH WIND       PRES   REMARKS
MANISTIQUE     PTCLDY    61  53  74 N5        29.96R
ESCANABA       MOCLDY    63  55  77 CALM      29.97R
MENOMINEE      CLOUDY    64  57  77 E10       29.94S
SAWYER-GWINN   CLEAR     59  55  88 NE6       29.99R
$$
MIZ001>003-009>011-084-300200-
WESTERN UPPER MICHIGAN

CITY           SKY/WX    TMP DP  RH WIND       PRES   REMARKS
IRON MOUNTAIN  CLOUDY    68  53  58 NW6       29.96S
HOUGHTON       CLEAR     57  51  80 NW9       29.98F
COPPER HARBOR    N/A     60  53  77 N10       29.98R
$$

ABBREVIATIONS USED IN REMARKS
   TC - TEMPERATURE IN CELSIUS
  WCI - WIND CHILL INDEX
   HX - HEAT INDEX
  VSB - VISIBILITY




USA.gov is the U.S. government's official web portal to all federal, state and local government web resources and services.